| time (UTC) | temp C | wind direction | speed KPH | gust KPH | rain 1hr cm | rain 24hr cm | rain mn cm | humidity % | barometer mb |
| 20260507031540 | 13 | 61 | 4.8 | 11.3 | 0.00 | 0.00 | 0.00 | 76 | 1017.7 |
| 20260507030040 | 13 | 88 | 4.8 | 12.9 | 0.00 | 0.00 | 0.00 | 75 | 1017.5 |
| 20260507024541 | 13 | 45 | 8.0 | 14.5 | 0.00 | 0.00 | 0.00 | 75 | 1017.3 |
| 20260507023037 | 13 | 66 | 4.8 | 12.9 | 0.00 | 0.00 | 0.00 | 75 | 1017.2 |
| 20260507021544 | 14 | 41 | 6.4 | 14.5 | 0.00 | 0.00 | 0.00 | 74 | 1017.1 |
| 20260507020042 | 14 | 49 | 6.4 | 11.3 | 0.00 | 0.00 | 0.00 | 73 | 1016.6 |
| 20260507014548 | 14 | 39 | 4.8 | 9.7 | 0.00 | 0.00 | 0.00 | 73 | 1016.5 |
| 20260507013036 | 15 | 40 | 3.2 | 8.0 | 0.00 | 0.00 | 0.00 | 71 | 1016.4 |
| 20260507011539 | 15 | 74 | 4.8 | 11.3 | 0.00 | 0.00 | 0.00 | 69 | 1016.2 |
| 20260507010037 | 15 | 15 | 6.4 | 19.3 | 0.00 | 0.00 | 0.00 | 68 | 1016.0 |
| 20260507004542 | 16 | 61 | 8.0 | 20.9 | 0.00 | 0.00 | 0.00 | 67 | 1016.0 |
| 20260507003039 | 16 | 10 | 9.7 | 20.9 | 0.00 | 0.00 | 0.00 | 66 | 1015.8 |
| 20260507001546 | 16 | 21 | 11.3 | 19.3 | 0.00 | 0.00 | 0.00 | 65 | 1015.6 |
| 20260507000037 | 17 | 327 | 9.7 | 20.9 | 0.00 | 0.00 | 0.00 | 65 | 1015.4 |
| 20260506234536 | 17 | 11 | 8.0 | 22.5 | 0.00 | 0.00 | 0.00 | 64 | 1015.3 |
| 20260506233041 | 17 | 352 | 9.7 | 20.9 | 0.00 | 0.00 | 0.00 | 63 | 1015.2 |
| 20260506231538 | 18 | 319 | 8.0 | 20.9 | 0.00 | 0.00 | 0.00 | 62 | 1015.0 |
| 20260506230040 | 19 | 18 | 11.3 | 19.3 | 0.00 | 0.00 | 0.00 | 60 | 1014.9 |
| 20260506224535 | 19 | 308 | 8.0 | 19.3 | 0.00 | 0.00 | 0.00 | 60 | 1014.6 |
| 20260506223033 | 20 | 348 | 9.7 | 20.9 | 0.00 | 0.00 | 0.00 | 58 | 1014.4 |
| 20260506221538 | 20 | 352 | 6.4 | 17.7 | 0.00 | 0.00 | 0.00 | 60 | 1014.3 |
| 20260506220041 | 20 | 345 | 8.0 | 17.7 | 0.00 | 0.00 | 0.00 | 57 | 1014.1 |
| 20260506214543 | 20 | 327 | 6.4 | 17.7 | 0.00 | 0.00 | 0.00 | 57 | 1014.2 |
| 20260506213036 | 20 | 24 | 8.0 | 20.9 | 0.00 | 0.00 | 0.00 | 58 | 1014.3 |
| 20260506211534 | 20 | 39 | 9.7 | 16.1 | 0.00 | 0.00 | 0.00 | 58 | 1014.5 |
| 20260506210041 | 20 | 15 | 4.8 | 17.7 | 0.00 | 0.00 | 0.00 | 61 | 1014.6 |
| 20260506204542 | 19 | 67 | 8.0 | 14.5 | 0.00 | 0.00 | 0.00 | 61 | 1014.7 |
| 20260506203035 | 18 | 47 | 9.7 | 19.3 | 0.00 | 0.00 | 0.00 | 60 | 1014.9 |
| 20260506201535 | 18 | 50 | 6.4 | 16.1 | 0.00 | 0.00 | 0.00 | 61 | 1015.1 |
| 20260506200035 | 18 | 74 | 6.4 | 17.7 | 0.00 | 0.00 | 0.00 | 62 | 1015.2 |
| 20260506194542 | 18 | 39 | 6.4 | 17.7 | 0.00 | 0.00 | 0.00 | 62 | 1015.4 |
| 20260506193038 | 17 | 74 | 6.4 | 22.5 | 0.00 | 0.00 | 0.00 | 63 | 1015.5 |
| 20260506191537 | 17 | 40 | 6.4 | 16.1 | 0.00 | 0.00 | 0.00 | 64 | 1015.8 |
| 20260506190035 | 17 | 32 | 11.3 | 20.9 | 0.00 | 0.00 | 0.00 | 65 | 1016.0 |
| 20260506184539 | 16 | 303 | 6.4 | 16.1 | 0.00 | 0.00 | 0.00 | 67 | 1016.1 |
| 20260506183039 | 16 | 360 | 6.4 | 17.7 | 0.00 | 0.00 | 0.00 | 68 | 1016.2 |
| 20260506181544 | 15 | 36 | 8.0 | 17.7 | 0.00 | 0.00 | 0.00 | 68 | 1016.3 |
| 20260506180051 | 14 | 335 | 4.8 | 16.1 | 0.00 | 0.00 | 0.00 | 72 | 1016.4 |
| 20260506174540 | 13 | 13 | 6.4 | 17.7 | 0.00 | 0.00 | 0.00 | 71 | 1016.5 |
| 20260506173052 | 13 | 313 | 6.4 | 16.1 | 0.00 | 0.00 | 0.00 | 73 | 1016.6 |
| 20260506171539 | 13 | 23 | 11.3 | 20.9 | 0.00 | 0.00 | 0.00 | 73 | 1016.9 |
| 20260506170039 | 12 | 316 | 8.0 | 24.1 | 0.00 | 0.00 | 0.00 | 75 | 1016.7 |
| 20260506164536 | 12 | 350 | 8.0 | 17.7 | 0.00 | 0.00 | 0.00 | 76 | 1016.4 |
| 20260506163041 | 12 | 14 | 11.3 | 17.7 | 0.00 | 0.00 | 0.00 | 76 | 1016.5 |
| 20260506161542 | 12 | 342 | 12.9 | 22.5 | 0.00 | 0.00 | 0.00 | 77 | 1016.4 |
| 20260506160040 | 11 | 5 | 11.3 | 20.9 | 0.00 | 0.00 | 0.00 | 79 | 1016.3 |
| 20260506154540 | 11 | 15 | 12.9 | 24.1 | 0.00 | 0.00 | 0.00 | 80 | 1016.0 |
| 20260506153035 | 11 | 29 | 14.5 | 25.7 | 0.00 | 0.00 | 0.00 | 82 | 1015.9 |
| 20260506151536 | 11 | 323 | 12.9 | 25.7 | 0.00 | 0.00 | 0.00 | 83 | 1015.7 |
| 20260506150044 | 10 | 15 | 11.3 | 24.1 | 0.00 | 0.00 | 0.00 | 85 | 1015.5 |
| 20260506144558 | 10 | 9 | 6.4 | 24.1 | 0.00 | 0.00 | 0.00 | 85 | 1015.9 |
| 20260506143038 | 10 | 335 | 9.7 | 22.5 | 0.00 | 0.00 | 0.00 | 85 | 1015.6 |
| 20260506141537 | 10 | 5 | 9.7 | 17.7 | 0.00 | 0.00 | 0.00 | 85 | 1016.1 |
| 20260506140042 | 10 | 350 | 4.8 | 12.9 | 0.00 | 0.00 | 0.00 | 85 | 1016.8 |
| 20260506134542 | 10 | 332 | 1.6 | 22.5 | 0.00 | 0.00 | 0.00 | 85 | 1017.7 |
| 20260506133043 | 10 | 5 | 8.0 | 17.7 | 0.00 | 0.00 | 0.00 | 85 | 1015.5 |
| 20260506131536 | 10 | 338 | 1.6 | 22.5 | 0.00 | 0.00 | 0.00 | 85 | 1016.5 |
| 20260506130038 | 10 | 31 | 11.3 | 20.9 | 0.00 | 0.00 | 0.00 | 84 | 1015.2 |
| 20260506124538 | 10 | 28 | 8.0 | 17.7 | 0.00 | 0.00 | 0.00 | 84 | 1015.6 |
| 20260506123040 | 10 | 16 | 8.0 | 19.3 | 0.00 | 0.00 | 0.00 | 84 | 1016.0 |
| 20260506121538 | 10 | 34 | 8.0 | 20.9 | 0.00 | 0.00 | 0.00 | 83 | 1014.4 |
| 20260506120038 | 10 | 348 | 9.7 | 25.7 | 0.00 | 0.00 | 0.00 | 83 | 1013.8 |
| 20260506114535 | 10 | 329 | 9.7 | 22.5 | 0.00 | 0.00 | 0.00 | 82 | 1014.1 |
| 20260506113041 | 10 | 38 | 9.7 | 22.5 | 0.00 | 0.00 | 0.00 | 82 | 1013.9 |
| 20260506111538 | 11 | 350 | 9.7 | 20.9 | 0.00 | 0.00 | 0.00 | 83 | 1013.9 |
| 20260506110042 | 11 | 360 | 12.9 | 24.1 | 0.00 | 0.00 | 0.00 | 83 | 1013.9 |
| 20260506104537 | 11 | 9 | 11.3 | 19.3 | 0.00 | 0.00 | 0.00 | 83 | 1013.6 |
| 20260506103037 | 11 | 36 | 8.0 | 17.7 | 0.00 | 0.00 | 0.00 | 84 | 1013.4 |
| 20260506101539 | 11 | 325 | 6.4 | 19.3 | 0.00 | 0.00 | 0.00 | 84 | 1013.1 |
| 20260506100040 | 11 | 5 | 6.4 | 16.1 | 0.00 | 0.00 | 0.00 | 84 | 1012.9 |
| 20260506094535 | 10 | 28 | 4.8 | 14.5 | 0.00 | 0.00 | 0.00 | 84 | 1012.5 |
| 20260506093040 | 10 | 10 | 4.8 | 14.5 | 0.00 | 0.00 | 0.00 | 84 | 1012.2 |
| 20260506091543 | 10 | 349 | 6.4 | 16.1 | 0.00 | 0.00 | 0.00 | 84 | 1012.3 |
| 20260506090041 | 10 | 360 | 6.4 | 14.5 | 0.00 | 0.00 | 0.00 | 84 | 1012.4 |
| 20260506084539 | 10 | 350 | 6.4 | 16.1 | 0.00 | 0.00 | 0.00 | 84 | 1012.2 |
| 20260506083038 | 11 | 5 | 4.8 | 12.9 | 0.00 | 0.00 | 0.00 | 84 | 1012.4 |
| 20260506081535 | 11 | 11 | 6.4 | 19.3 | 0.00 | 0.00 | 0.00 | 84 | 1012.3 |
| 20260506073044 | 11 | 13 | 6.4 | 16.1 | 0.00 | 0.00 | 0.00 | 84 | 1012.2 |
| 20260506071536 | 11 | 336 | 4.8 | 14.5 | 0.00 | 0.00 | 0.00 | 84 | 1012.2 |
| 20260506061539 | 12 | 352 | 4.8 | 9.7 | 0.00 | 0.00 | 0.00 | 83 | 1012.1 |
| 20260506044546 | 14 | 25 | 11.3 | 20.9 | 0.00 | 0.00 | 0.00 | 76 | 1011.6 |
| 20260506043036 | 15 | 30 | 11.3 | 20.9 | 0.00 | 0.00 | 0.00 | 74 | 1011.7 |
| 20260506041551 | 16 | 15 | 11.3 | 20.9 | 0.00 | 0.00 | 0.00 | 73 | 1011.5 |
| 20260506040041 | 16 | 28 | 12.9 | 20.9 | 0.00 | 0.00 | 0.00 | 71 | 1011.3 |
| 20260506034544 | 17 | 26 | 4.8 | 17.7 | 0.00 | 0.00 | 0.00 | 69 | 1011.2 |
| 20260506033038 | 17 | 346 | 11.3 | 20.9 | 0.00 | 0.00 | 0.00 | 68 | 1011.1 |